Time,TemperatureF,DewpointF,PressureIn,WindDirection,WindDirectionDegrees,WindSpeedMPH,WindSpeedGustMPH,Humidity,HourlyPrecipIn,Conditions,Clouds,dailyrainin,SoftwareType,DateUTC
2013-05-19 00:02:00,71.4,16.2,29.97,WSW,243,6.0,9.0,12,0.00,,,0.00,meteohub,2013-05-19 06:02:00,
2013-05-19 00:07:00,71.4,18.0,29.97,WSW,250,7.0,8.0,13,0.00,,,0.00,meteohub,2013-05-19 06:07:00,
2013-05-19 00:12:00,71.8,18.3,29.97,WSW,243,4.0,9.0,13,0.00,,,0.00,meteohub,2013-05-19 06:12:00,
2013-05-19 00:17:00,71.8,18.3,29.98,West,263,7.0,10.0,13,0.00,,,0.00,meteohub,2013-05-19 06:17:00,
2013-05-19 00:22:00,71.4,18.0,29.97,WSW,248,5.0,10.0,13,0.00,,,0.00,meteohub,2013-05-19 06:22:00,
2013-05-19 00:27:00,70.5,17.2,29.98,WSW,253,7.0,9.0,13,0.00,,,0.00,meteohub,2013-05-19 06:27:00,
2013-05-19 00:32:00,70.3,18.9,29.98,West,261,3.0,9.0,14,0.00,,,0.00,meteohub,2013-05-19 06:32:00,
2013-05-19 00:37:00,70.9,19.2,29.98,WSW,257,7.0,9.0,14,0.00,,,0.00,meteohub,2013-05-19 06:37:00,
2013-05-19 00:42:00,71.4,18.0,29.98,West,270,6.0,9.0,13,0.00,,,0.00,meteohub,2013-05-19 06:42:00,
2013-05-19 00:47:00,71.8,18.3,29.98,WSW,256,5.0,10.0,13,0.00,,,0.00,meteohub,2013-05-19 06:47:00,
2013-05-19 00:52:00,70.5,17.2,29.98,SW,227,4.0,10.0,13,0.00,,,0.00,meteohub,2013-05-19 06:52:00,
2013-05-19 00:57:00,68.7,17.6,29.98,WSW,241,3.0,10.0,14,0.00,,,0.00,meteohub,2013-05-19 06:57:00,
2013-05-19 01:02:00,68.4,18.9,29.98,WSW,247,3.0,9.0,15,0.00,,,0.00,meteohub,2013-05-19 07:02:00,
2013-05-19 01:07:00,68.9,19.4,29.98,West,269,3.0,7.0,15,0.00,,,0.00,meteohub,2013-05-19 07:07:00,
2013-05-19 01:12:00,69.8,20.1,29.98,WNW,285,0.0,6.0,15,0.00,,,0.00,meteohub,2013-05-19 07:12:00,
2013-05-19 01:17:00,70.2,20.3,29.98,WNW,297,1.0,6.0,15,0.00,,,0.00,meteohub,2013-05-19 07:17:00,
2013-05-19 01:22:00,71.2,21.2,29.98,WNW,301,0.0,5.0,15,0.00,,,0.00,meteohub,2013-05-19 07:22:00,
2013-05-19 01:27:00,70.0,18.5,29.99,WNW,301,0.0,4.0,14,0.00,,,0.00,meteohub,2013-05-19 07:27:00,
2013-05-19 01:32:00,67.5,18.1,29.99,WNW,301,0.0,4.0,15,0.00,,,0.00,meteohub,2013-05-19 07:32:00,
2013-05-19 01:37:00,66.7,19.0,29.99,WNW,301,0.0,2.0,16,0.00,,,0.00,meteohub,2013-05-19 07:37:00,
2013-05-19 01:42:00,66.7,19.0,29.99,WNW,302,1.0,1.0,16,0.00,,,0.00,meteohub,2013-05-19 07:42:00,
2013-05-19 01:47:00,66.6,20.3,29.99,WNW,302,0.0,2.0,17,0.00,,,0.00,meteohub,2013-05-19 07:47:00,
2013-05-19 01:52:00,66.2,20.1,29.98,WNW,302,0.0,2.0,17,0.00,,,0.00,meteohub,2013-05-19 07:52:00,
2013-05-19 01:57:00,66.0,19.9,29.99,WNW,297,2.0,2.0,17,0.00,,,0.00,meteohub,2013-05-19 07:57:00,
2013-05-19 02:02:00,67.1,20.8,29.99,WNW,297,2.0,4.0,17,0.00,,,0.00,meteohub,2013-05-19 08:02:00,
2013-05-19 02:07:00,68.4,20.5,29.99,West,281,4.0,6.0,16,0.00,,,0.00,meteohub,2013-05-19 08:07:00,
2013-05-19 02:12:00,69.3,21.2,29.99,West,277,5.0,6.0,16,0.00,,,0.00,meteohub,2013-05-19 08:12:00,
2013-05-19 02:17:00,69.4,19.8,29.98,West,261,4.0,9.0,15,0.00,,,0.00,meteohub,2013-05-19 08:17:00,
2013-05-19 02:22:00,69.4,19.8,29.98,West,261,5.0,9.0,15,0.00,,,0.00,meteohub,2013-05-19 08:22:00,
2013-05-19 02:27:00,69.3,19.6,29.99,West,269,6.0,9.0,15,0.00,,,0.00,meteohub,2013-05-19 08:27:00,
2013-05-19 02:32:00,69.3,19.6,29.98,West,275,5.0,9.0,15,0.00,,,0.00,meteohub,2013-05-19 08:32:00,
2013-05-19 02:37:00,69.3,19.6,29.99,West,275,6.0,10.0,15,0.00,,,0.00,meteohub,2013-05-19 08:37:00,
2013-05-19 02:42:00,69.3,19.6,29.99,West,271,7.0,10.0,15,0.00,,,0.00,meteohub,2013-05-19 08:42:00,
2013-05-19 02:47:00,69.3,19.6,29.99,West,265,10.0,11.0,15,0.00,,,0.00,meteohub,2013-05-19 08:47:00,
2013-05-19 02:52:00,69.3,19.6,29.99,West,260,7.0,11.0,15,0.00,,,0.00,meteohub,2013-05-19 08:52:00,
2013-05-19 02:57:00,68.9,20.8,29.99,West,260,7.0,11.0,16,0.00,,,0.00,meteohub,2013-05-19 08:57:00,
2013-05-19 03:02:00,68.4,20.5,29.99,WSW,243,6.0,12.0,16,0.00,,,0.00,meteohub,2013-05-19 09:02:00,
2013-05-19 03:07:00,68.2,20.3,29.99,West,259,4.0,12.0,16,0.00,,,0.00,meteohub,2013-05-19 09:07:00,
2013-05-19 03:12:00,68.0,20.1,29.99,WSW,239,7.0,12.0,16,0.00,,,0.00,meteohub,2013-05-19 09:12:00,
2013-05-19 03:17:00,67.6,19.8,29.99,WSW,252,7.0,11.0,16,0.00,,,0.00,meteohub,2013-05-19 09:17:00,
2013-05-19 03:22:00,67.5,19.8,29.99,WSW,254,6.0,11.0,16,0.00,,,0.00,meteohub,2013-05-19 09:22:00,
2013-05-19 03:27:00,67.3,21.0,29.99,WSW,250,6.0,11.0,17,0.00,,,0.00,meteohub,2013-05-19 09:27:00,
2013-05-19 03:32:00,66.9,20.7,29.99,WSW,249,6.0,10.0,17,0.00,,,0.00,meteohub,2013-05-19 09:32:00,
2013-05-19 03:37:00,66.9,20.7,29.99,WSW,252,3.0,10.0,17,0.00,,,0.00,meteohub,2013-05-19 09:37:00,
2013-05-19 03:42:00,66.9,20.7,29.99,West,263,6.0,9.0,17,0.00,,,0.00,meteohub,2013-05-19 09:42:00,
2013-05-19 03:47:00,67.3,19.6,29.99,WNW,283,8.0,10.0,16,0.00,,,0.00,meteohub,2013-05-19 09:47:00,
2013-05-19 03:52:00,67.3,19.6,29.99,West,271,5.0,12.0,16,0.00,,,0.00,meteohub,2013-05-19 09:52:00,
2013-05-19 03:57:00,67.5,19.8,29.99,West,264,6.0,12.0,16,0.00,,,0.00,meteohub,2013-05-19 09:57:00,
2013-05-19 04:02:00,67.5,19.8,29.99,WSW,241,6.0,12.0,16,0.00,,,0.00,meteohub,2013-05-19 10:02:00,
2013-05-19 04:07:00,67.3,19.6,29.99,WSW,247,9.0,12.0,16,0.00,,,0.00,meteohub,2013-05-19 10:07:00,
2013-05-19 04:12:00,67.3,19.6,29.99,West,267,6.0,12.0,16,0.00,,,0.00,meteohub,2013-05-19 10:12:00,
2013-05-19 04:17:00,67.1,19.4,29.99,West,274,7.0,11.0,16,0.00,,,0.00,meteohub,2013-05-19 10:17:00,
2013-05-19 04:22:00,67.1,19.4,30.00,West,270,7.0,11.0,16,0.00,,,0.00,meteohub,2013-05-19 10:22:00,
2013-05-19 04:27:00,66.9,19.2,30.00,West,270,1.0,10.0,16,0.00,,,0.00,meteohub,2013-05-19 10:27:00,
2013-05-19 04:32:00,66.7,20.5,30.00,West,265,2.0,8.0,17,0.00,,,0.00,meteohub,2013-05-19 10:32:00,
2013-05-19 04:37:00,65.8,19.8,30.00,West,265,0.0,7.0,17,0.00,,,0.00,meteohub,2013-05-19 10:37:00,
2013-05-19 04:42:00,63.3,20.3,30.00,West,265,0.0,5.0,19,0.00,,,0.00,meteohub,2013-05-19 10:42:00,
2013-05-19 04:47:00,63.0,21.2,30.00,West,265,0.0,3.0,20,0.00,,,0.00,meteohub,2013-05-19 10:47:00,
2013-05-19 04:52:00,64.2,19.8,30.00,WNW,289,2.0,2.0,18,0.00,,,0.00,meteohub,2013-05-19 10:52:00,
2013-05-19 04:57:00,65.5,20.8,30.00,WNW,283,3.0,5.0,18,0.00,,,0.00,meteohub,2013-05-19 10:57:00,
2013-05-19 05:02:00,65.5,19.6,30.00,WNW,298,3.0,5.0,17,0.00,,,0.00,meteohub,2013-05-19 11:02:00,
2013-05-19 05:07:00,65.3,19.4,30.00,WNW,298,1.0,6.0,17,0.00,,,0.00,meteohub,2013-05-19 11:07:00,
2013-05-19 05:12:00,64.9,19.0,30.00,WNW,298,0.0,6.0,17,0.00,,,0.00,meteohub,2013-05-19 11:12:00,
2013-05-19 05:17:00,64.4,19.9,30.00,WNW,298,2.0,5.0,18,0.00,,,0.00,meteohub,2013-05-19 11:17:00,
2013-05-19 05:22:00,63.5,19.2,30.00,WNW,296,1.0,4.0,18,0.00,,,0.00,meteohub,2013-05-19 11:22:00,
2013-05-19 05:27:00,61.7,20.1,30.00,WNW,296,1.0,4.0,20,0.00,,,0.00,meteohub,2013-05-19 11:27:00,
2013-05-19 05:32:00,60.4,20.3,30.00,WNW,296,1.0,4.0,21,0.00,,,0.00,meteohub,2013-05-19 11:32:00,
2013-05-19 05:37:00,60.1,19.9,30.00,WNW,296,3.0,3.0,21,0.00,,,0.00,meteohub,2013-05-19 11:37:00,
2013-05-19 05:42:00,61.2,19.8,30.00,WNW,290,3.0,3.0,20,0.00,,,0.00,meteohub,2013-05-19 11:42:00,
2013-05-19 05:47:00,62.1,20.5,30.01,WNW,290,0.0,5.0,20,0.00,,,0.00,meteohub,2013-05-19 11:47:00,
2013-05-19 05:52:00,62.1,20.5,30.00,West,273,3.0,5.0,20,0.00,,,0.00,meteohub,2013-05-19 11:52:00,
2013-05-19 05:57:00,62.4,20.8,30.00,West,262,7.0,8.0,20,0.00,,,0.00,meteohub,2013-05-19 11:57:00,
2013-05-19 06:02:00,63.0,21.2,30.00,West,265,7.0,9.0,20,0.00,,,0.00,meteohub,2013-05-19 12:02:00,
2013-05-19 06:07:00,63.1,21.4,30.01,WSW,257,5.0,9.0,20,0.00,,,0.00,meteohub,2013-05-19 12:07:00,
2013-05-19 06:12:00,63.0,21.2,30.01,WSW,238,3.0,9.0,20,0.00,,,0.00,meteohub,2013-05-19 12:12:00,
2013-05-19 06:17:00,62.6,21.0,30.01,WSW,241,1.0,9.0,20,0.00,,,0.00,meteohub,2013-05-19 12:17:00,
2013-05-19 06:22:00,61.9,20.3,30.01,WSW,242,3.0,9.0,20,0.00,,,0.00,meteohub,2013-05-19 12:22:00,
2013-05-19 06:27:00,61.7,20.1,30.01,WSW,252,3.0,9.0,20,0.00,,,0.00,meteohub,2013-05-19 12:27:00,
2013-05-19 06:32:00,62.2,20.7,30.01,WSW,254,3.0,7.0,20,0.00,,,0.00,meteohub,2013-05-19 12:32:00,
2013-05-19 06:37:00,62.8,21.0,30.01,West,272,7.0,8.0,20,0.00,,,0.00,meteohub,2013-05-19 12:37:00,
2013-05-19 06:42:00,63.0,21.2,30.01,WSW,250,4.0,10.0,20,0.00,,,0.00,meteohub,2013-05-19 12:42:00,
2013-05-19 06:47:00,62.8,21.0,30.02,West,270,5.0,10.0,20,0.00,,,0.00,meteohub,2013-05-19 12:47:00,
2013-05-19 06:52:00,62.2,20.7,30.02,WSW,244,3.0,10.0,20,0.00,,,0.00,meteohub,2013-05-19 12:52:00,
2013-05-19 06:57:00,62.1,20.5,30.02,West,259,4.0,10.0,20,0.00,,,0.00,meteohub,2013-05-19 12:57:00,
2013-05-19 07:02:00,62.8,21.0,30.02,WSW,242,5.0,9.0,20,0.00,,,0.00,meteohub,2013-05-19 13:02:00,
2013-05-19 07:07:00,63.3,21.6,30.02,SW,234,5.0,10.0,20,0.00,,,0.00,meteohub,2013-05-19 13:07:00,
2013-05-19 07:12:00,63.5,20.5,30.02,West,271,5.0,11.0,19,0.00,,,0.00,meteohub,2013-05-19 13:12:00,
2013-05-19 07:17:00,64.2,21.0,30.02,West,281,5.0,11.0,19,0.00,,,0.00,meteohub,2013-05-19 13:17:00,
2013-05-19 07:22:00,64.9,21.7,30.03,West,260,3.0,12.0,19,0.00,,,0.00,meteohub,2013-05-19 13:22:00,
2013-05-19 07:27:00,65.5,22.1,30.03,West,260,7.0,12.0,19,0.00,,,0.00,meteohub,2013-05-19 13:27:00,
2013-05-19 07:32:00,66.0,22.6,30.03,WSW,256,6.0,12.0,19,0.00,,,0.00,meteohub,2013-05-19 13:32:00,
2013-05-19 07:37:00,66.7,23.2,30.03,WSW,239,4.0,11.0,19,0.00,,,0.00,meteohub,2013-05-19 13:37:00,
2013-05-19 07:42:00,67.3,22.3,30.03,SW,234,7.0,11.0,18,0.00,,,0.00,meteohub,2013-05-19 13:42:00,
2013-05-19 07:47:00,67.6,22.6,30.03,WSW,247,5.0,14.0,18,0.00,,,0.00,meteohub,2013-05-19 13:47:00,
2013-05-19 07:52:00,67.8,24.1,30.03,SW,231,7.0,14.0,19,0.00,,,0.00,meteohub,2013-05-19 13:52:00,
2013-05-19 07:57:00,68.2,24.3,30.03,WSW,247,7.0,10.0,19,0.00,,,0.00,meteohub,2013-05-19 13:57:00,
2013-05-19 08:02:00,68.4,24.4,30.03,West,263,8.0,10.0,19,0.00,,,0.00,meteohub,2013-05-19 14:02:00,
2013-05-19 08:07:00,69.4,24.1,30.03,SW,223,10.0,10.0,18,0.00,,,0.00,meteohub,2013-05-19 14:07:00,
2013-05-19 08:12:00,70.3,24.8,30.03,WSW,246,6.0,12.0,18,0.00,,,0.00,meteohub,2013-05-19 14:12:00,
2013-05-19 08:17:00,71.1,24.1,30.03,West,260,4.0,12.0,17,0.00,,,0.00,meteohub,2013-05-19 14:17:00,
2013-05-19 08:22:00,71.8,26.1,30.03,West,263,6.0,12.0,18,0.00,,,0.00,meteohub,2013-05-19 14:22:00,
2013-05-19 08:27:00,72.5,25.2,30.03,WNW,286,16.0,16.0,17,0.00,,,0.00,meteohub,2013-05-19 14:27:00,
2013-05-19 08:32:00,72.7,25.3,30.03,West,279,7.0,16.0,17,0.00,,,0.00,meteohub,2013-05-19 14:32:00,
2013-05-19 08:37:00,73.2,25.7,30.03,WSW,256,6.0,16.0,17,0.00,,,0.00,meteohub,2013-05-19 14:37:00,
2013-05-19 08:42:00,73.9,26.4,30.03,WNW,297,7.0,16.0,17,0.00,,,0.00,meteohub,2013-05-19 14:42:00,
2013-05-19 08:47:00,74.5,26.8,30.03,WNW,286,7.0,14.0,17,0.00,,,0.00,meteohub,2013-05-19 14:47:00,
2013-05-19 08:52:00,74.8,27.1,30.04,West,276,10.0,15.0,17,0.00,,,0.00,meteohub,2013-05-19 14:52:00,
2013-05-19 08:57:00,75.0,27.3,30.04,West,261,8.0,15.0,17,0.00,,,0.00,meteohub,2013-05-19 14:57:00,
2013-05-19 09:02:00,75.9,28.0,30.04,West,261,7.0,14.0,17,0.00,,,0.00,meteohub,2013-05-19 15:02:00,
2013-05-19 09:07:00,76.5,29.8,30.03,NW,311,9.0,14.0,18,0.00,,,0.00,meteohub,2013-05-19 15:07:00,
2013-05-19 09:12:00,76.5,28.4,30.03,WNW,286,7.0,14.0,17,0.00,,,0.00,meteohub,2013-05-19 15:12:00,
2013-05-19 09:17:00,76.6,28.6,30.03,WNW,284,9.0,15.0,17,0.00,,,0.00,meteohub,2013-05-19 15:17:00,
2013-05-19 09:22:00,76.6,30.0,30.03,West,271,18.0,18.0,18,0.00,,,0.00,meteohub,2013-05-19 15:22:00,
2013-05-19 09:27:00,76.6,30.0,30.03,NW,306,11.0,20.0,18,0.00,,,0.00,meteohub,2013-05-19 15:27:00,
2013-05-19 09:32:00,76.6,30.0,30.03,WNW,302,10.0,20.0,18,0.00,,,0.00,meteohub,2013-05-19 15:32:00,
2013-05-19 09:37:00,77.2,30.4,30.03,NW,318,10.0,20.0,18,0.00,,,0.00,meteohub,2013-05-19 15:37:00,
2013-05-19 09:42:00,77.2,30.4,30.03,West,275,16.0,19.0,18,0.00,,,0.00,meteohub,2013-05-19 15:42:00,
2013-05-19 09:47:00,77.5,30.7,30.03,NW,304,14.0,19.0,18,0.00,,,0.00,meteohub,2013-05-19 15:47:00,
2013-05-19 09:52:00,77.9,30.9,30.03,WSW,240,14.0,17.0,18,0.00,,,0.00,meteohub,2013-05-19 15:52:00,
2013-05-19 09:57:00,78.1,31.1,30.02,West,274,13.0,18.0,18,0.00,,,0.00,meteohub,2013-05-19 15:57:00,
2013-05-19 10:02:00,78.1,29.7,30.03,WNW,292,11.0,18.0,17,0.00,,,0.00,meteohub,2013-05-19 16:02:00,
2013-05-19 10:07:00,78.1,29.7,30.02,NW,309,6.0,18.0,17,0.00,,,0.00,meteohub,2013-05-19 16:07:00,
2013-05-19 10:12:00,78.3,29.8,30.02,WNW,296,8.0,21.0,17,0.00,,,0.00,meteohub,2013-05-19 16:12:00,
2013-05-19 10:17:00,78.4,30.0,30.02,WNW,287,10.0,26.0,17,0.00,,,0.00,meteohub,2013-05-19 16:17:00,
2013-05-19 10:22:00,78.4,30.0,30.02,NW,317,18.0,26.0,17,0.00,,,0.00,meteohub,2013-05-19 16:22:00,
2013-05-19 10:27:00,79.0,30.4,30.02,WNW,294,16.0,26.0,17,0.00,,,0.00,meteohub,2013-05-19 16:27:00,
2013-05-19 10:32:00,79.2,29.1,30.02,NW,322,8.0,19.0,16,0.00,,,0.00,meteohub,2013-05-19 16:32:00,
2013-05-19 10:37:00,79.5,27.9,30.02,West,259,7.0,19.0,15,0.00,,,0.00,meteohub,2013-05-19 16:37:00,
2013-05-19 10:42:00,79.9,28.0,30.01,WNW,282,10.0,19.0,15,0.00,,,0.00,meteohub,2013-05-19 16:42:00,
2013-05-19 10:47:00,80.2,28.4,30.01,WSW,256,14.0,19.0,15,0.00,,,0.00,meteohub,2013-05-19 16:47:00,
2013-05-19 10:52:00,80.1,26.6,30.01,West,281,9.0,22.0,14,0.00,,,0.00,meteohub,2013-05-19 16:52:00,
2013-05-19 10:57:00,80.6,28.8,30.01,West,263,6.0,22.0,15,0.00,,,0.00,meteohub,2013-05-19 16:57:00,
2013-05-19 11:02:00,81.1,27.5,30.01,WNW,288,12.0,22.0,14,0.00,,,0.00,meteohub,2013-05-19 17:02:00,
2013-05-19 11:07:00,81.1,25.7,30.01,West,269,16.0,20.0,13,0.00,,,0.00,meteohub,2013-05-19 17:07:00,
2013-05-19 11:12:00,81.0,25.5,30.01,West,267,8.0,20.0,13,0.00,,,0.00,meteohub,2013-05-19 17:12:00,
2013-05-19 11:17:00,81.7,26.1,30.01,West,279,13.0,22.0,13,0.00,,,0.00,meteohub,2013-05-19 17:17:00,
2013-05-19 11:22:00,81.7,22.1,30.01,WNW,288,5.0,22.0,11,0.00,,,0.00,meteohub,2013-05-19 17:22:00,
2013-05-19 11:27:00,82.0,24.4,30.00,WSW,256,11.0,22.0,12,0.00,,,0.00,meteohub,2013-05-19 17:27:00,
2013-05-19 11:32:00,82.0,24.4,30.00,WSW,258,10.0,21.0,12,0.00,,,0.00,meteohub,2013-05-19 17:32:00,
2013-05-19 11:37:00,82.8,22.8,30.00,WNW,291,9.0,21.0,11,0.00,,,0.00,meteohub,2013-05-19 17:37:00,
2013-05-19 11:42:00,82.8,25.0,30.00,NW,319,6.0,21.0,12,0.00,,,0.00,meteohub,2013-05-19 17:42:00,
2013-05-19 11:47:00,82.9,25.2,30.00,West,281,10.0,21.0,12,0.00,,,0.00,meteohub,2013-05-19 17:47:00,
2013-05-19 11:52:00,82.6,24.8,30.00,West,271,15.0,21.0,12,0.00,,,0.00,meteohub,2013-05-19 17:52:00,
2013-05-19 11:57:00,82.2,24.6,29.99,NNW,333,8.0,23.0,12,0.00,,,0.00,meteohub,2013-05-19 17:57:00,
2013-05-19 12:02:00,82.6,24.8,29.99,NW,305,8.0,23.0,12,0.00,,,0.00,meteohub,2013-05-19 18:02:00,
2013-05-19 12:07:00,83.8,23.7,29.99,WNW,303,15.0,23.0,11,0.00,,,0.00,meteohub,2013-05-19 18:07:00,
2013-05-19 12:12:00,84.0,21.6,29.99,WNW,288,7.0,16.0,10,0.00,,,0.00,meteohub,2013-05-19 18:12:00,
2013-05-19 12:17:00,83.8,23.7,29.99,WSW,240,11.0,22.0,11,0.00,,,0.00,meteohub,2013-05-19 18:17:00,
2013-05-19 12:22:00,83.7,23.5,29.99,WNW,296,12.0,22.0,11,0.00,,,0.00,meteohub,2013-05-19 18:22:00,
2013-05-19 12:27:00,83.3,21.0,29.98,WSW,257,8.0,22.0,10,0.00,,,0.00,meteohub,2013-05-19 18:27:00,
2013-05-19 12:32:00,84.0,19.0,29.98,WNW,293,8.0,19.0,9,0.00,,,0.00,meteohub,2013-05-19 18:32:00,
2013-05-19 12:37:00,84.7,19.6,29.98,WSW,239,16.0,19.0,9,0.00,,,0.00,meteohub,2013-05-19 18:37:00,
2013-05-19 12:42:00,85.5,20.1,29.98,WSW,239,11.0,24.0,9,0.00,,,0.00,meteohub,2013-05-19 18:42:00,
2013-05-19 12:47:00,85.3,20.1,29.97,WSW,244,13.0,24.0,9,0.00,,,0.00,meteohub,2013-05-19 18:47:00,
2013-05-19 12:52:00,85.6,17.6,29.97,West,271,9.0,24.0,8,0.00,,,0.00,meteohub,2013-05-19 18:52:00,
2013-05-19 12:57:00,86.0,17.8,29.97,SW,223,13.0,23.0,8,0.00,,,0.00,meteohub,2013-05-19 18:57:00,
2013-05-19 13:02:00,85.3,20.1,29.97,WNW,300,8.0,23.0,9,0.00,,,0.00,meteohub,2013-05-19 19:02:00,
2013-05-19 13:07:00,85.1,19.9,29.96,WSW,250,14.0,21.0,9,0.00,,,0.00,meteohub,2013-05-19 19:07:00,
2013-05-19 13:12:00,86.0,20.7,29.96,WSW,244,14.0,21.0,9,0.00,,,0.00,meteohub,2013-05-19 19:12:00,
2013-05-19 13:17:00,84.9,19.8,29.96,WSW,257,5.0,20.0,9,0.00,,,0.00,meteohub,2013-05-19 19:17:00,
2013-05-19 13:22:00,85.6,20.3,29.96,WNW,286,9.0,20.0,9,0.00,,,0.00,meteohub,2013-05-19 19:22:00,
2013-05-19 13:28:00,86.2,20.7,29.96,West,267,3.0,19.0,9,0.00,,,0.00,meteohub,2013-05-19 19:28:00,
2013-05-19 13:34:00,86.5,21.0,29.95,WSW,246,17.0,20.0,9,0.00,,,0.00,meteohub,2013-05-19 19:34:00,
2013-05-19 13:40:00,85.6,20.3,29.95,SW,220,8.0,21.0,9,0.00,,,0.00,meteohub,2013-05-19 19:40:00,
2013-05-19 13:46:00,86.2,20.7,29.94,West,280,13.0,22.0,9,0.00,,,0.00,meteohub,2013-05-19 19:46:00,
2013-05-19 13:52:00,87.1,21.4,29.94,SW,231,5.0,22.0,9,0.00,,,0.00,meteohub,2013-05-19 19:52:00,
2013-05-19 13:57:00,87.4,21.7,29.94,WNW,289,10.0,18.0,9,0.00,,,0.00,meteohub,2013-05-19 19:57:00,
2013-05-19 14:02:00,87.1,21.4,29.94,SW,225,16.0,17.0,9,0.00,,,0.00,meteohub,2013-05-19 20:02:00,
2013-05-19 14:07:00,87.1,18.7,29.94,WSW,246,12.0,22.0,8,0.00,,,0.00,meteohub,2013-05-19 20:07:00,
2013-05-19 14:12:00,87.1,21.4,29.94,West,270,17.0,25.0,9,0.00,,,0.00,meteohub,2013-05-19 20:12:00,
2013-05-19 14:17:00,87.3,21.6,29.94,West,265,8.0,25.0,9,0.00,,,0.00,meteohub,2013-05-19 20:17:00,
2013-05-19 14:22:00,87.4,21.7,29.94,WNW,292,9.0,23.0,9,0.00,,,0.00,meteohub,2013-05-19 20:22:00,
2013-05-19 14:27:00,87.4,21.7,29.93,West,268,14.0,23.0,9,0.00,,,0.00,meteohub,2013-05-19 20:27:00,
2013-05-19 14:32:00,87.4,21.7,29.93,WNW,301,11.0,23.0,9,0.00,,,0.00,meteohub,2013-05-19 20:32:00,
2013-05-19 14:37:00,86.9,21.2,29.93,West,265,12.0,21.0,9,0.00,,,0.00,meteohub,2013-05-19 20:37:00,
2013-05-19 14:42:00,88.3,22.3,29.92,WNW,286,9.0,21.0,9,0.00,,,0.00,meteohub,2013-05-19 20:42:00,
2013-05-19 14:47:00,87.6,19.0,29.92,WSW,257,5.0,20.0,8,0.00,,,0.00,meteohub,2013-05-19 20:47:00,
2013-05-19 14:52:00,88.2,19.4,29.91,WNW,298,11.0,20.0,8,0.00,,,0.00,meteohub,2013-05-19 20:52:00,
2013-05-19 14:57:00,88.5,19.8,29.92,West,272,9.0,20.0,8,0.00,,,0.00,meteohub,2013-05-19 20:57:00,
2013-05-19 15:02:00,88.9,19.9,29.91,West,280,15.0,21.0,8,0.00,,,0.00,meteohub,2013-05-19 21:02:00,
2013-05-19 15:07:00,88.3,19.6,29.91,West,279,11.0,22.0,8,0.00,,,0.00,meteohub,2013-05-19 21:07:00,
2013-05-19 15:12:00,88.3,19.6,29.91,WNW,289,13.0,22.0,8,0.00,,,0.00,meteohub,2013-05-19 21:12:00,
2013-05-19 15:17:00,88.5,19.8,29.91,SW,227,7.0,22.0,8,0.00,,,0.00,meteohub,2013-05-19 21:17:00,
2013-05-19 15:22:00,89.2,17.1,29.91,SW,217,9.0,19.0,7,0.00,,,0.00,meteohub,2013-05-19 21:22:00,
2013-05-19 15:27:00,89.1,17.1,29.90,West,269,8.0,19.0,7,0.00,,,0.00,meteohub,2013-05-19 21:27:00,
2013-05-19 15:32:00,89.2,20.3,29.90,WNW,302,13.0,19.0,8,0.00,,,0.00,meteohub,2013-05-19 21:32:00,
2013-05-19 15:37:00,89.2,17.1,29.90,WSW,245,11.0,22.0,7,0.00,,,0.00,meteohub,2013-05-19 21:37:00,
2013-05-19 15:42:00,89.4,17.2,29.89,WSW,248,11.0,22.0,7,0.00,,,0.00,meteohub,2013-05-19 21:42:00,
2013-05-19 15:47:00,90.3,18.0,29.89,WNW,282,9.0,22.0,7,0.00,,,0.00,meteohub,2013-05-19 21:47:00,
2013-05-19 15:52:00,89.8,17.6,29.89,West,261,9.0,19.0,7,0.00,,,0.00,meteohub,2013-05-19 21:52:00,
2013-05-19 15:57:00,90.0,17.6,29.89,West,265,10.0,21.0,7,0.00,,,0.00,meteohub,2013-05-19 21:57:00,
2013-05-19 16:02:00,90.1,17.8,29.89,WSW,240,10.0,21.0,7,0.00,,,0.00,meteohub,2013-05-19 22:02:00,
2013-05-19 16:07:00,90.0,17.6,29.88,WSW,254,3.0,21.0,7,0.00,,,0.00,meteohub,2013-05-19 22:07:00,
2013-05-19 16:12:00,90.5,18.1,29.88,SW,232,22.0,22.0,7,0.00,,,0.00,meteohub,2013-05-19 22:12:00,
2013-05-19 16:17:00,89.8,17.6,29.88,West,265,10.0,22.0,7,0.00,,,0.00,meteohub,2013-05-19 22:17:00,
2013-05-19 16:22:00,89.8,14.0,29.88,WSW,257,11.0,22.0,6,0.00,,,0.00,meteohub,2013-05-19 22:22:00,
2013-05-19 16:27:00,90.1,14.2,29.88,WSW,252,17.0,22.0,6,0.00,,,0.00,meteohub,2013-05-19 22:27:00,
2013-05-19 16:32:00,90.0,14.2,29.88,WSW,237,15.0,21.0,6,0.00,,,0.00,meteohub,2013-05-19 22:32:00,
2013-05-19 16:37:00,90.0,17.6,29.88,WSW,257,11.0,21.0,7,0.00,,,0.00,meteohub,2013-05-19 22:37:00,
2013-05-19 16:42:00,89.8,17.6,29.87,SW,234,15.0,21.0,7,0.00,,,0.00,meteohub,2013-05-19 22:42:00,
2013-05-19 16:47:00,90.0,17.6,29.87,West,277,13.0,22.0,7,0.00,,,0.00,meteohub,2013-05-19 22:47:00,
2013-05-19 16:52:00,89.8,17.6,29.87,West,279,8.0,22.0,7,0.00,,,0.00,meteohub,2013-05-19 22:52:00,
2013-05-19 16:57:00,90.1,17.8,29.87,NW,311,8.0,22.0,7,0.00,,,0.00,meteohub,2013-05-19 22:57:00,
2013-05-19 17:02:00,90.3,18.0,29.87,WSW,258,13.0,17.0,7,0.00,,,0.00,meteohub,2013-05-19 23:02:00,
2013-05-19 17:07:00,90.0,17.6,29.87,WSW,258,6.0,15.0,7,0.00,,,0.00,meteohub,2013-05-19 23:07:00,
2013-05-19 17:12:00,90.3,18.0,29.86,SW,226,15.0,15.0,7,0.00,,,0.00,meteohub,2013-05-19 23:12:00,
2013-05-19 17:18:00,90.3,14.4,29.86,SW,236,9.0,23.0,6,0.00,,,0.00,meteohub,2013-05-19 23:18:00,
2013-05-19 17:23:00,90.1,14.2,29.86,WSW,253,8.0,23.0,6,0.00,,,0.00,meteohub,2013-05-19 23:23:00,
2013-05-19 17:29:00,90.3,10.2,29.86,WSW,245,8.0,23.0,5,0.00,,,0.00,meteohub,2013-05-19 23:29:00,
2013-05-19 17:35:00,90.1,14.2,29.86,WSW,258,10.0,21.0,6,0.00,,,0.00,meteohub,2013-05-19 23:35:00,
2013-05-19 17:41:00,90.3,14.4,29.86,WSW,243,8.0,21.0,6,0.00,,,0.00,meteohub,2013-05-19 23:41:00,
2013-05-19 17:47:00,89.8,14.0,29.86,SW,222,12.0,25.0,6,0.00,,,0.00,meteohub,2013-05-19 23:47:00,
2013-05-19 17:52:00,90.0,14.2,29.86,SW,219,12.0,25.0,6,0.00,,,0.00,meteohub,2013-05-19 23:52:00,
2013-05-19 17:57:00,89.4,13.8,29.86,WSW,238,8.0,20.0,6,0.00,,,0.00,meteohub,2013-05-19 23:57:00,
2013-05-19 18:02:00,89.6,13.8,29.86,West,270,10.0,20.0,6,0.00,,,0.00,meteohub,2013-05-20 00:02:00,
2013-05-19 18:07:00,89.8,14.0,29.86,SW,221,13.0,19.0,6,0.00,,,0.00,meteohub,2013-05-20 00:07:00,
2013-05-19 18:12:00,90.0,14.2,29.85,SW,223,10.0,19.0,6,0.00,,,0.00,meteohub,2013-05-20 00:12:00,
2013-05-19 18:17:00,90.0,14.2,29.86,WSW,248,11.0,19.0,6,0.00,,,0.00,meteohub,2013-05-20 00:17:00,
2013-05-19 18:22:00,89.8,14.0,29.85,West,269,8.0,20.0,6,0.00,,,0.00,meteohub,2013-05-20 00:22:00,
2013-05-19 18:27:00,89.6,9.7,29.85,WSW,237,9.0,23.0,5,0.00,,,0.00,meteohub,2013-05-20 00:27:00,
2013-05-19 18:32:00,89.8,5.0,29.85,West,269,10.0,27.0,4,0.00,,,0.00,meteohub,2013-05-20 00:32:00,
2013-05-19 18:37:00,89.8,5.0,29.85,SW,223,14.0,27.0,4,0.00,,,0.00,meteohub,2013-05-20 00:37:00,
2013-05-19 18:42:00,89.6,4.8,29.85,West,270,9.0,21.0,4,0.00,,,0.00,meteohub,2013-05-20 00:42:00,
2013-05-19 18:47:00,89.4,4.6,29.85,WSW,242,13.0,21.0,4,0.00,,,0.00,meteohub,2013-05-20 00:47:00,
2013-05-19 18:52:00,89.2,4.6,29.85,WNW,284,17.0,25.0,4,0.00,,,0.00,meteohub,2013-05-20 00:52:00,
2013-05-19 18:57:00,89.2,4.6,29.85,West,261,14.0,25.0,4,0.00,,,0.00,meteohub,2013-05-20 00:57:00,
2013-05-19 19:02:00,88.9,4.3,29.85,West,264,18.0,25.0,4,0.00,,,0.00,meteohub,2013-05-20 01:02:00,
2013-05-19 19:07:00,88.5,4.1,29.85,West,264,17.0,25.0,4,0.00,,,0.00,meteohub,2013-05-20 01:07:00,
2013-05-19 19:12:00,88.5,9.0,29.85,West,278,12.0,24.0,5,0.00,,,0.00,meteohub,2013-05-20 01:12:00,
2013-05-19 19:17:00,88.3,3.9,29.86,West,266,13.0,22.0,4,0.00,,,0.00,meteohub,2013-05-20 01:17:00,
2013-05-19 19:22:00,88.2,8.8,29.86,West,263,10.0,22.0,5,0.00,,,0.00,meteohub,2013-05-20 01:22:00,
2013-05-19 19:27:00,88.0,8.6,29.86,West,272,9.0,19.0,5,0.00,,,0.00,meteohub,2013-05-20 01:27:00,
2013-05-19 19:32:00,87.4,8.2,29.86,WNW,294,10.0,19.0,5,0.00,,,0.00,meteohub,2013-05-20 01:32:00,
2013-05-19 19:37:00,87.3,12.2,29.86,West,277,11.0,19.0,6,0.00,,,0.00,meteohub,2013-05-20 01:37:00,
2013-05-19 19:42:00,86.7,11.8,29.86,WNW,298,6.0,19.0,6,0.00,,,0.00,meteohub,2013-05-20 01:42:00,
2013-05-19 19:47:00,86.2,14.9,29.86,WNW,290,11.0,19.0,7,0.00,,,0.00,meteohub,2013-05-20 01:47:00,
2013-05-19 19:52:00,85.6,14.5,29.86,WNW,300,7.0,13.0,7,0.00,,,0.00,meteohub,2013-05-20 01:52:00,
2013-05-19 19:57:00,85.3,14.2,29.86,WNW,288,9.0,16.0,7,0.00,,,0.00,meteohub,2013-05-20 01:57:00,
2013-05-19 20:02:00,84.9,14.0,29.87,WNW,288,10.0,16.0,7,0.00,,,0.00,meteohub,2013-05-20 02:02:00,
2013-05-19 20:07:00,84.6,13.6,29.87,WNW,290,5.0,16.0,7,0.00,,,0.00,meteohub,2013-05-20 02:07:00,
2013-05-19 20:12:00,84.2,13.5,29.87,WNW,303,7.0,13.0,7,0.00,,,0.00,meteohub,2013-05-20 02:12:00,
2013-05-19 20:17:00,83.8,13.3,29.87,WNW,297,7.0,12.0,7,0.00,,,0.00,meteohub,2013-05-20 02:17:00,
2013-05-19 20:22:00,83.5,12.9,29.88,WNW,290,9.0,12.0,7,0.00,,,0.00,meteohub,2013-05-20 02:22:00,
2013-05-19 20:27:00,83.1,12.7,29.88,NW,306,8.0,11.0,7,0.00,,,0.00,meteohub,2013-05-20 02:27:00,
2013-05-19 20:32:00,82.8,15.4,29.88,WNW,294,6.0,11.0,8,0.00,,,0.00,meteohub,2013-05-20 02:32:00,
2013-05-19 20:37:00,82.6,15.3,29.88,WNW,301,3.0,11.0,8,0.00,,,0.00,meteohub,2013-05-20 02:37:00,
2013-05-19 20:42:00,82.0,14.9,29.88,WNW,300,4.0,8.0,8,0.00,,,0.00,meteohub,2013-05-20 02:42:00,
2013-05-19 20:47:00,81.7,14.7,29.88,WNW,298,5.0,8.0,8,0.00,,,0.00,meteohub,2013-05-20 02:47:00,
2013-05-19 20:52:00,81.1,14.2,29.88,WNW,302,6.0,7.0,8,0.00,,,0.00,meteohub,2013-05-20 02:52:00,
2013-05-19 20:58:00,80.8,14.0,29.89,WNW,290,8.0,8.0,8,0.00,,,0.00,meteohub,2013-05-20 02:58:00,
2013-05-19 21:04:00,80.4,16.3,29.89,WNW,302,4.0,8.0,9,0.00,,,0.00,meteohub,2013-05-20 03:04:00,
2013-05-19 21:10:00,80.2,16.3,29.89,WNW,303,5.0,8.0,9,0.00,,,0.00,meteohub,2013-05-20 03:10:00,
2013-05-19 21:16:00,80.1,16.2,29.89,NW,308,4.0,9.0,9,0.00,,,0.00,meteohub,2013-05-20 03:16:00,
2013-05-19 21:21:00,79.9,16.0,29.90,NW,311,6.0,10.0,9,0.00,,,0.00,meteohub,2013-05-20 03:21:00,
2013-05-19 21:27:00,79.9,16.0,29.90,WNW,295,3.0,11.0,9,0.00,,,0.00,meteohub,2013-05-20 03:27:00,
2013-05-19 21:32:00,79.7,15.8,29.90,WNW,292,4.0,11.0,9,0.00,,,0.00,meteohub,2013-05-20 03:32:00,
2013-05-19 21:37:00,78.6,15.1,29.90,West,275,4.0,10.0,9,0.00,,,0.00,meteohub,2013-05-20 03:37:00,
2013-05-19 21:42:00,77.5,14.2,29.90,West,279,2.0,9.0,9,0.00,,,0.00,meteohub,2013-05-20 03:42:00,
2013-05-19 21:47:00,76.8,13.6,29.90,West,279,2.0,7.0,9,0.00,,,0.00,meteohub,2013-05-20 03:47:00,
2013-05-19 21:52:00,76.3,15.6,29.91,West,279,2.0,7.0,10,0.00,,,0.00,meteohub,2013-05-20 03:52:00,
2013-05-19 21:57:00,75.9,15.4,29.91,West,279,1.0,7.0,10,0.00,,,0.00,meteohub,2013-05-20 03:57:00,
2013-05-19 22:01:00,75.6,15.1,29.91,West,279,3.0,4.0,10,0.00,,,0.00,meteohub,2013-05-20 04:01:00,
2013-05-19 22:02:00,75.6,15.1,29.91,West,279,1.0,4.0,10,0.00,,,0.00,meteohub,2013-05-20 04:02:00,
2013-05-19 22:03:00,75.6,15.1,29.91,West,279,4.0,4.0,10,0.00,,,0.00,meteohub,2013-05-20 04:03:00,
2013-05-19 22:07:00,75.6,15.1,29.91,West,267,2.0,6.0,10,0.00,,,0.00,meteohub,2013-05-20 04:07:00,
2013-05-19 22:11:00,75.7,15.3,29.91,West,262,1.0,6.0,10,0.00,,,0.00,meteohub,2013-05-20 04:11:00,
2013-05-19 22:17:00,75.6,15.1,29.91,West,263,1.0,6.0,10,0.00,,,0.00,meteohub,2013-05-20 04:17:00,
2013-05-19 22:22:00,75.6,17.4,29.91,WSW,243,1.0,5.0,11,0.00,,,0.00,meteohub,2013-05-20 04:22:00,
2013-05-19 22:27:00,75.0,16.9,29.91,WSW,243,2.0,5.0,11,0.00,,,0.00,meteohub,2013-05-20 04:27:00,
2013-05-19 22:32:00,73.0,15.4,29.91,WSW,243,0.0,5.0,11,0.00,,,0.00,meteohub,2013-05-20 04:32:00,
2013-05-19 22:37:00,72.0,16.5,29.92,SW,231,2.0,4.0,12,0.00,,,0.00,meteohub,2013-05-20 04:37:00,
2013-05-19 22:42:00,71.4,16.2,29.92,SW,229,0.0,4.0,12,0.00,,,0.00,meteohub,2013-05-20 04:42:00,
2013-05-19 22:47:00,71.1,15.8,29.92,SW,229,0.0,4.0,12,0.00,,,0.00,meteohub,2013-05-20 04:47:00,
2013-05-19 22:52:00,70.2,17.1,29.92,SW,229,0.0,4.0,13,0.00,,,0.00,meteohub,2013-05-20 04:52:00,
2013-05-19 22:57:00,70.0,18.5,29.92,SW,229,0.0,2.0,14,0.00,,,0.00,meteohub,2013-05-20 04:57:00,
2013-05-19 23:02:00,69.6,18.3,29.92,SW,229,0.0,0.0,14,0.00,,,0.00,meteohub,2013-05-20 05:02:00,
2013-05-19 23:07:00,69.8,16.7,29.92,SW,229,0.0,0.0,13,0.00,,,0.00,meteohub,2013-05-20 05:07:00,
2013-05-19 23:12:00,70.2,17.1,29.92,SW,229,2.0,2.0,13,0.00,,,0.00,meteohub,2013-05-20 05:12:00,
2013-05-19 23:17:00,70.5,17.2,29.92,SW,229,3.0,4.0,13,0.00,,,0.00,meteohub,2013-05-20 05:17:00,
2013-05-19 23:22:00,71.4,18.0,29.93,SSW,213,7.0,7.0,13,0.00,,,0.00,meteohub,2013-05-20 05:22:00,
2013-05-19 23:27:00,72.3,16.9,29.93,SW,229,3.0,7.0,12,0.00,,,0.00,meteohub,2013-05-20 05:27:00,
2013-05-19 23:32:00,72.1,16.7,29.93,SSW,211,6.0,8.0,12,0.00,,,0.00,meteohub,2013-05-20 05:32:00,
2013-05-19 23:37:00,71.4,16.2,29.93,SW,229,4.0,8.0,12,0.00,,,0.00,meteohub,2013-05-20 05:37:00,
2013-05-19 23:43:00,71.1,17.8,29.93,SW,236,2.0,8.0,13,0.00,,,0.00,meteohub,2013-05-20 05:43:00,
2013-05-19 23:48:00,71.6,18.1,29.93,WSW,244,5.0,10.0,13,0.00,,,0.00,meteohub,2013-05-20 05:48:00,
2013-05-19 23:54:00,71.8,18.3,29.93,West,275,5.0,10.0,13,0.00,,,0.00,meteohub,2013-05-20 05:54:00,